Location: Alafon
(8.4500°N, 4.2333°E)
Time: 17:29:40
(UTC+00:00)

Courier 1B - Visible Passes

Search period start: 27 July 2021 00:00
Search period end: 06 August 2021 00:00
Orbit: 962 x 1209 km, 28.3° (Epoch: 26 July)

Date Brightness Start Highest point End Pass type
(mag) Time Alt. Az. Time Alt. Az. Time Alt. Az.
27 Jul 9.8 02:12:02 17° ENE 02:12:02 17° ENE 02:13:37 10° E visible
27 Jul 7.3 03:59:01 34° WNW 04:02:02 75° SSW 04:08:29 10° SE visible
27 Jul 9.3 19:19:40 10° W 19:26:40 35° NNW 19:33:28 10° NE visible
27 Jul 9.9 21:17:31 10° NW 21:22:11 17° N 21:23:18 17° N visible
28 Jul 7.9 03:09:46 56° ESE 03:09:46 56° ESE 03:14:46 10° ESE visible
28 Jul 8.4 04:56:50 10° W 05:02:14 28° SSW 05:07:38 10° SSE visible
28 Jul 9.0 18:25:05 10° W 18:32:32 45° NNW 18:39:50 10° NE visible
28 Jul 9.9 20:22:26 10° WNW 20:27:51 20° NNW 20:33:04 10° NNE visible
29 Jul 10.0 02:20:28 12° ESE 02:20:28 12° ESE 02:20:54 10° ESE visible
29 Jul 7.9 04:07:26 37° SW 04:08:30 40° SSW 04:14:29 10° SE visible
29 Jul 9.8 19:27:25 10° WNW 19:33:32 24° NNW 19:39:29 10° NE visible
29 Jul 10.0 21:25:22 10° NW 21:29:28 15° N 21:29:37 15° N visible
30 Jul 8.7 03:18:03 29° SE 03:18:03 29° SE 03:21:07 10° SE visible
30 Jul 9.1 05:05:33 10° WSW 05:08:50 14° SSW 05:12:05 10° S visible
30 Jul 9.6 18:32:34 10° W 18:39:15 30° NNW 18:45:51 10° NE visible
30 Jul 10.0 20:30:28 10° NW 20:35:02 16° N 20:39:10 11° NNE visible
31 Jul 8.8 04:15:31 21° SSW 04:15:31 21° SSW 04:19:42 10° SSE visible
31 Jul 10.0 19:35:28 10° NW 19:40:37 19° N 19:45:40 10° NNE visible
31 Jul 10.0 21:32:27 10° NNW 21:35:31 15° N 21:35:31 15° N visible
01 Aug 9.5 03:25:53 14° SSE 03:25:53 14° SSE 03:26:50 10° SSE visible
01 Aug 10.0 18:40:29 10° WNW 18:46:13 22° NNW 18:51:55 10° NNE visible
01 Aug 9.9 20:38:01 10° NW 20:42:22 16° N 20:44:56 13° NNE visible
02 Aug 10.0 19:43:21 10° NW 19:47:54 16° N 19:52:22 10° NNE visible
02 Aug 10.0 21:38:47 10° NNW 21:41:11 16° NNW 21:41:11 16° NNW visible
03 Aug 10.0 18:48:31 10° NW 18:53:25 17° N 18:58:16 10° NNE visible
03 Aug 9.7 20:44:45 10° NNW 20:49:41 18° N 20:50:31 17° NNE visible
04 Aug 9.9 19:50:33 10° NNW 19:55:14 17° N 19:59:51 10° NE visible
04 Aug 10.0 21:44:46 10° NW 21:46:44 17° NNW 21:46:44 17° NNW visible
05 Aug 10.0 18:56:09 10° NW 19:00:44 16° N 19:05:17 10° NE visible
05 Aug 9.5 20:50:55 10° NW 20:56:03 23° N 20:56:03 23° N visible
